GW6156 Weather Reports


time (UTC)temp
F
wind
direction
speed
knots
gust
knots
rain 1hr
in
rain 24hr
in
rain mn
in
humidity
%
barometer
mb
20260510082946 64 61 0.0 2.6 0.00 0.00 0.00 72 1014.7
20260510082444 63 141 2.6 2.6 0.00 0.00 0.00 72 1014.5
20260510081943 62 78 1.7 2.6 0.00 0.00 0.00 74 1014.8
20260510081439 62 104 1.7 1.7 0.00 0.00 0.00 76 1014.9
20260510080936 62 122 0.0 1.7 0.00 0.00 0.00 76 1014.7
20260510080434 62 113 0.0 2.6 0.00 0.00 0.00 76 1014.8
20260510075931 62 129 0.0 2.6 0.00 0.00 0.00 76 1014.7
20260510075429 62 141 1.7 3.5 0.00 0.00 0.00 78 1014.7
20260510074926 62 85 0.9 1.7 0.00 0.00 0.00 78 1014.8
20260510074423 62 132 0.0 1.7 0.00 0.00 0.00 78 1014.7
20260510073919 62 146 0.9 1.7 0.00 0.00 0.00 78 1014.7
20260510073415 62 118 1.7 1.7 0.00 0.00 0.00 78 1014.6
20260510072911 62 49 0.9 0.9 0.00 0.00 0.00 78 1014.3
20260510072408 62 21 0.0 1.7 0.00 0.00 0.00 78 1014.3
20260510071904 62 57 1.7 2.6 0.00 0.00 0.00 79 1014.6
20260510071401 61 106 0.0 2.6 0.00 0.00 0.00 79 1014.6
20260510070859 61 85 0.9 1.7 0.00 0.00 0.00 79 1014.7
20260510070356 61 43 0.0 0.9 0.00 0.00 0.00 79 1014.8
20260510065856 62 89 0.0 1.7 0.00 0.00 0.00 78 1014.9
20260510065353 62 133 0.0 1.7 0.00 0.00 0.00 77 1014.9
20260510064849 62 121 0.0 1.7 0.00 0.00 0.00 77 1014.9
20260510064347 62 136 1.7 1.7 0.00 0.00 0.00 76 1015.0
20260510063843 62 33 0.0 0.9 0.00 0.00 0.00 76 1015.4
20260510063340 62 178 1.7 1.7 0.00 0.00 0.00 76 1015.4
20260510062837 62 108 0.9 0.9 0.00 0.00 0.00 75 1015.4
20260510062332 62 66 0.0 1.7 0.00 0.00 0.00 75 1015.6
20260510061827 62 30 0.0 1.7 0.00 0.00 0.00 74 1015.5
20260510061325 63 100 0.0 0.9 0.00 0.00 0.00 73 1015.7
20260510060820 63 94 0.9 1.7 0.00 0.00 0.00 73 1015.8
20260510060318 63 102 0.0 0.9 0.00 0.00 0.00 72 1015.8
20260510055815 63 89 0.0 0.9 0.00 0.00 0.00 72 1015.4
20260510055313 62 72 1.7 1.7 0.00 0.00 0.00 71 1015.4
20260510054813 62 89 0.0 0.9 0.00 0.00 0.00 71 1015.4
20260510054309 62 38 0.0 0.9 0.00 0.00 0.00 71 1015.2
20260510053804 63 110 1.7 1.7 0.00 0.00 0.00 71 1015.4
20260510053259 62 99 1.7 2.6 0.00 0.00 0.00 70 1015.2
20260510052756 63 26 0.0 1.7 0.00 0.00 0.00 70 1015.3
20260510052251 62 47 1.7 1.7 0.00 0.00 0.00 70 1015.3
20260510051748 62 82 0.0 2.6 0.00 0.00 0.00 70 1015.2
20260510051245 62 124 1.7 1.7 0.00 0.00 0.00 71 1015.1
20260510050741 62 99 1.7 1.7 0.00 0.00 0.00 71 1015.2
20260510050239 62 32 0.0 0.9 0.00 0.00 0.00 70 1014.9
20260510045735 62 165 0.9 1.7 0.00 0.00 0.00 70 1014.9
20260510045232 62 135 0.9 1.7 0.00 0.00 0.00 69 1015.0
20260510044729 62 129 0.9 1.7 0.00 0.00 0.00 68 1014.7
20260510044227 62 52 0.0 0.9 0.00 0.00 0.00 68 1014.9
20260510043721 62 55 0.0 0.9 0.00 0.00 0.00 68 1014.7
20260510043219 63 102 0.0 0.9 0.00 0.00 0.00 66 1014.8
20260510042716 63 66 0.0 0.9 0.00 0.00 0.00 67 1014.7
20260510042212 63 55 0.0 1.7 0.00 0.00 0.00 65 1014.5
20260510041709 63 57 0.9 0.9 0.00 0.00 0.00 65 1014.9
20260510041206 63 56 0.0 0.9 0.00 0.00 0.00 65 1014.8
20260510040703 63 82 0.9 0.9 0.00 0.00 0.00 66 1014.7
20260510040200 62 89 0.0 0.9 0.00 0.00 0.00 66 1014.6
20260510035655 62 84 0.0 0.0 0.00 0.00 0.00 65 1014.6
20260510035151 62 95 0.0 0.0 0.00 0.00 0.00 65 1014.8
20260510034647 62 89 0.0 0.0 0.00 0.00 0.00 65 1014.6
20260510034145 62 103 0.0 0.9 0.00 0.00 0.00 65 1014.3
20260510033641 63 110 0.0 0.9 0.00 0.00 0.00 64 1014.3
20260510033139 63 131 0.0 0.9 0.00 0.00 0.00 62 1014.1
20260510032635 63 99 0.0 0.9 0.00 0.00 0.00 61 1014.1
20260510032130 63 84 0.9 0.9 0.00 0.00 0.00 61 1013.8
20260510031625 64 97 0.9 0.9 0.00 0.00 0.00 61 1013.8
20260510031122 64 89 0.0 0.9 0.00 0.00 0.00 60 1013.6
20260510030617 64 79 0.0 0.9 0.00 0.00 0.00 60 1013.6
20260510030115 64 89 0.0 0.0 0.00 0.00 0.00 59 1013.6
20260510025612 64 70 0.9 0.9 0.00 0.00 0.00 59 1013.4
20260510025109 64 50 0.0 0.9 0.00 0.00 0.00 59 1013.5
20260510024606 64 87 0.0 0.9 0.00 0.00 0.00 59 1013.5
20260510024102 64 57 0.0 0.9 0.00 0.00 0.00 59 1013.5
20260510023558 64 50 0.9 1.7 0.00 0.00 0.00 60 1013.2
20260510023056 64 60 0.0 0.9 0.00 0.00 0.00 60 1013.0
20260510022556 65 89 0.0 0.0 0.00 0.00 0.00 56 1013.0
20260510022056 65 89 0.0 0.0 0.00 0.00 0.00 56 1013.0
20260510021552 66 89 0.0 0.0 0.00 0.00 0.00 55 1013.0
20260510021050 66 129 0.0 0.0 0.00 0.00 0.00 55 1012.7
20260510020544 67 129 0.0 0.0 0.00 0.00 0.00 54 1012.4
20260510020040 67 129 0.0 0.0 0.00 0.00 0.00 54 1012.4
20260510015535 68 50 0.0 0.0 0.00 0.00 0.00 51 1012.4
20260510015032 68 37 0.0 0.0 0.00 0.00 0.00 51 1012.1
20260510014528 68 41 0.0 0.0 0.00 0.00 0.00 51 1012.2
20260510014026 69 50 0.0 0.0 0.00 0.00 0.00 50 1012.2
20260510013520 69 89 0.0 0.0 0.00 0.00 0.00 49 1012.0
20260510013016 70 129 0.0 0.0 0.00 0.00 0.00 48 1012.0
20260510012510 72 117 0.0 1.7 0.00 0.00 0.00 44 1011.7
20260510012007 72 117 0.0 1.7 0.00 0.00 0.00 44 1011.7
20260510011500 73 106 0.0 0.9 0.00 0.00 0.00 44 1011.7
20260510010957 73 147 0.0 0.9 0.00 0.00 0.00 43 1011.9
20260510010454 74 70 0.0 1.7 0.00 0.00 0.00 42 1011.7
20260510005951 74 125 1.7 1.7 0.00 0.00 0.00 41 1011.7
20260510005447 75 31 0.0 1.7 0.00 0.00 0.00 40 1011.5
20260510004945 75 40 0.0 1.7 0.00 0.00 0.00 39 1011.5
20260510004441 76 89 0.0 0.9 0.00 0.00 0.00 38 1011.6
20260510003940 77 102 0.0 1.7 0.00 0.00 0.00 37 1011.6
20260510003436 77 38 0.9 1.7 0.00 0.00 0.00 36 1011.5
20260510002936 77 127 1.7 2.6 0.00 0.00 0.00 36 1011.5
20260510002433 78 188 0.0 2.6 0.00 0.00 0.00 35 1011.7
20260510001929 78 188 0.0 2.6 0.00 0.00 0.00 35 1011.7
20260510001427 79 158 2.6 2.6 0.00 0.00 0.00 35 1011.5
20260510000925 79 144 1.7 1.7 0.00 0.00 0.00 34 1011.5
20260510000421 80 150 1.7 2.6 0.00 0.00 0.00 33 1011.4
20260509235917 82 147 1.7 3.5 0.00 0.00 0.00 32 1011.7
20260509235414 84 286 0.0 1.7 0.00 0.00 0.00 32 1011.6
20260509234910 85 168 0.0 1.7 0.00 0.00 0.00 32 1011.8
20260509234407 84 157 0.0 1.7 0.00 0.00 0.00 31 1011.8
20260509233905 84 238 0.9 1.7 0.00 0.00 0.00 32 1011.7
20260509233403 84 254 1.7 1.7 0.00 0.00 0.00 31 1011.7
20260509232858 84 274 1.7 2.6 0.00 0.00 0.00 32 1011.9
20260509232356 84 139 0.9 2.6 0.00 0.00 0.00 32 1011.8
20260509231851 84 129 2.6 4.3 0.00 0.00 0.00 32 1011.6
20260509231349 85 121 1.7 1.7 0.00 0.00 0.00 32 1011.9
20260509230847 85 121 1.7 1.7 0.00 0.00 0.00 32 1011.9
20260509230343 86 150 1.7 2.6 0.00 0.00 0.00 31 1012.0
20260509225839 85 138 1.7 1.7 0.00 0.00 0.00 31 1011.8
20260509225336 85 127 1.7 5.2 0.00 0.00 0.00 32 1011.9
20260509224832 85 238 2.6 3.5 0.00 0.00 0.00 32 1011.9
20260509224328 85 240 4.3 5.2 0.00 0.00 0.00 31 1011.8
20260509223825 85 240 4.3 5.2 0.00 0.00 0.00 31 1011.8
20260509223322 85 254 0.0 1.7 0.00 0.00 0.00 34 1011.9
20260509222819 86 234 1.7 2.6 0.00 0.00 0.00 33 1012.0
20260509222314 86 290 0.9 2.6 0.00 0.00 0.00 33 1011.8
20260509221810 86 240 0.0 3.5 0.00 0.00 0.00 33 1012.0
20260509221307 86 250 3.5 3.5 0.00 0.00 0.00 30 1011.6
20260509220802 84 256 1.7 4.3 0.00 0.00 0.00 31 1011.7
20260509220259 84 194 1.7 3.5 0.00 0.00 0.00 32 1011.9
20260509215754 85 163 0.0 2.6 0.00 0.00 0.00 32 1011.9
20260509215251 85 137 4.3 7.0 0.00 0.00 0.00 32 1011.8
20260509214748 85 327 0.0 1.7 0.00 0.00 0.00 34 1011.8
20260509214245 86 137 4.3 4.3 0.00 0.00 0.00 32 1012.0
20260509213742 85 214 2.6 2.6 0.00 0.00 0.00 31 1011.7
20260509213237 85 173 1.7 3.5 0.00 0.00 0.00 32 1012.0
20260509212735 85 114 0.0 3.5 0.00 0.00 0.00 32 1012.0
20260509212232 85 145 1.7 2.6 0.00 0.00 0.00 34 1011.9
20260509211728 85 121 0.9 3.5 0.00 0.00 0.00 31 1012.1
20260509211225 85 168 1.7 2.6 0.00 0.00 0.00 34 1012.1
20260509210721 85 276 0.9 4.3 0.00 0.00 0.00 34 1012.0
20260509210219 85 182 1.7 3.5 0.00 0.00 0.00 34 1012.3
20260509205718 84 218 0.0 2.6 0.00 0.00 0.00 34 1012.2
20260509205218 85 167 2.6 3.5 0.00 0.00 0.00 34 1012.4
20260509204714 83 148 1.7 1.7 0.00 0.00 0.00 33 1012.4
20260509204211 83 79 0.0 2.6 0.00 0.00 0.00 35 1012.5
20260509203707 83 229 2.6 4.3 0.00 0.00 0.00 33 1012.5
20260509203206 84 195 0.9 5.2 0.00 0.00 0.00 34 1012.6
20260509202701 82 94 2.6 7.0 0.00 0.00 0.00 34 1012.6
20260509202155 83 171 0.0 5.2 0.00 0.00 0.00 33 1012.5
20260509201651 85 158 4.3 4.3 0.00 0.00 0.00 33 1012.5
20260509201148 85 240 0.9 3.5 0.00 0.00 0.00 36 1012.8
20260509200644 85 81 1.7 3.5 0.00 0.00 0.00 34 1012.7
20260509200140 85 158 1.7 3.5 0.00 0.00 0.00 34 1012.7
20260509195636 84 356 0.9 3.5 0.00 0.00 0.00 31 1012.8
20260509195131 84 6 0.9 1.7 0.00 0.00 0.00 32 1012.6
20260509194630 83 55 0.0 2.6 0.00 0.00 0.00 34 1012.6
20260509194128 83 142 0.9 7.0 0.00 0.00 0.00 34 1012.8
20260509193624 83 200 0.0 4.3 0.00 0.00 0.00 35 1012.6
20260509193120 83 166 0.0 4.3 0.00 0.00 0.00 35 1012.9
20260509192617 82 74 0.0 1.7 0.00 0.00 0.00 32 1012.8
20260509192112 82 200 0.0 3.5 0.00 0.00 0.00 33 1012.9
20260509191606 84 187 1.7 3.5 0.00 0.00 0.00 34 1013.0
20260509191103 83 238 0.9 1.7 0.00 0.00 0.00 33 1013.0
20260509190559 83 271 1.7 2.6 0.00 0.00 0.00 36 1013.1
20260509190057 82 264 0.9 2.6 0.00 0.00 0.00 34 1013.1
20260509185555 82 271 0.0 5.2 0.00 0.00 0.00 36 1013.1
20260509185050 81 82 0.0 3.5 0.00 0.00 0.00 34 1013.1
20260509184549 81 83 0.9 2.6 0.00 0.00 0.00 37 1013.1
20260509184045 81 55 1.7 5.2 0.00 0.00 0.00 36 1013.3
20260509183540 81 59 1.7 3.5 0.00 0.00 0.00 34 1013.3
20260509183036 81 153 0.9 4.3 0.00 0.00 0.00 37 1013.2
20260509182533 80 219 0.9 4.3 0.00 0.00 0.00 36 1013.1
20260509182025 82 230 0.0 4.3 0.00 0.00 0.00 35 1013.0
20260509181523 82 138 1.7 3.5 0.00 0.00 0.00 38 1013.2
20260509181020 81 200 1.7 2.6 0.00 0.00 0.00 39 1013.3
20260509180515 81 130 0.9 1.7 0.00 0.00 0.00 39 1013.2
20260509180013 81 146 0.9 2.6 0.00 0.00 0.00 37 1013.3
20260509175508 81 222 0.9 5.2 0.00 0.00 0.00 42 1013.3
20260509175005 81 241 1.7 3.5 0.00 0.00 0.00 38 1013.4
20260509174502 81 132 0.0 1.7 0.00 0.00 0.00 39 1013.2
20260509174001 80 159 1.7 2.6 0.00 0.00 0.00 44 1013.1
20260509173456 80 248 1.7 3.5 0.00 0.00 0.00 43 1013.3
20260509172953 80 3 0.9 1.7 0.00 0.00 0.00 43 1013.4
20260509172450 80 199 2.6 3.5 0.00 0.00 0.00 43 1013.6
20260509171946 80 215 2.6 3.5 0.00 0.00 0.00 42 1013.6
20260509171442 80 10 0.9 3.5 0.00 0.00 0.00 43 1013.4
20260509170938 79 115 0.9 2.6 0.00 0.00 0.00 47 1013.4
20260509170434 78 134 3.5 5.2 0.00 0.00 0.00 50 1013.6
20260509165931 78 202 2.6 4.3 0.00 0.00 0.00 49 1013.5
20260509165430 78 155 2.6 2.6 0.00 0.00 0.00 55 1013.5
20260509164926 78 131 1.7 3.5 0.00 0.00 0.00 52 1013.3
20260509164422 78 101 2.6 2.6 0.00 0.00 0.00 49 1013.3
20260509163918 79 227 4.3 4.3 0.00 0.00 0.00 50 1013.3
20260509163416 78 355 0.9 2.6 0.00 0.00 0.00 60 1013.5
20260509162914 77 202 0.0 3.5 0.00 0.00 0.00 59 1013.5
20260509162413 77 181 3.5 3.5 0.00 0.00 0.00 55 1013.7
20260509161909 77 157 1.7 4.3 0.00 0.00 0.00 59 1013.6
20260509161405 77 165 0.9 2.6 0.00 0.00 0.00 62 1013.8
20260509160901 76 213 1.7 2.6 0.00 0.00 0.00 58 1013.7
20260509160357 76 63 0.0 1.7 0.00 0.00 0.00 59 1013.7
20260509155852 77 212 0.9 4.3 0.00 0.00 0.00 56 1013.6
20260509155349 77 243 0.0 2.6 0.00 0.00 0.00 57 1013.5
20260509154845 76 79 1.7 1.7 0.00 0.00 0.00 60 1013.7
20260509154342 75 156 0.9 3.5 0.00 0.00 0.00 62 1013.7
20260509153839 74 296 0.9 1.7 0.00 0.00 0.00 66 1013.8
20260509153336 74 212 1.7 3.5 0.00 0.00 0.00 67 1013.8
20260509152833 73 197 0.9 3.5 0.00 0.00 0.00 68 1013.7
20260509152329 74 239 0.9 1.7 0.00 0.00 0.00 66 1013.7
20260509151827 73 199 0.9 3.5 0.00 0.00 0.00 67 1013.7
20260509151322 72 190 1.7 3.5 0.00 0.00 0.00 67 1013.6
20260509150821 72 242 2.6 3.5 0.00 0.00 0.00 68 1013.6
20260509150318 72 216 2.6 4.3 0.00 0.00 0.00 68 1013.6
20260509145815 72 260 0.9 2.6 0.00 0.00 0.00 67 1013.5
20260509145315 72 179 1.7 2.6 0.00 0.00 0.00 68 1013.5
20260509144812 71 255 1.7 2.6 0.00 0.00 0.00 70 1013.8
20260509144309 71 235 1.7 4.3 0.00 0.00 0.00 67 1013.6
20260509143806 71 148 0.0 2.6 0.00 0.00 0.00 68 1013.6
20260509143303 70 187 1.7 2.6 0.00 0.00 0.00 70 1013.6
20260509142759 69 279 1.7 3.5 0.00 0.00 0.00 70 1013.3
20260509142255 70 218 0.9 3.5 0.00 0.00 0.00 69 1013.2
20260509141751 69 223 0.9 2.6 0.00 0.00 0.00 71 1013.4
20260509141248 69 292 2.6 3.5 0.00 0.00 0.00 72 1013.3
20260509140745 69 191 1.7 3.5 0.00 0.00 0.00 69 1013.3
20260509140242 71 129 0.0 1.7 0.00 0.00 0.00 70 1013.4
20260509135740 71 126 0.0 2.6 0.00 0.00 0.00 68 1013.3
20260509135237 70 153 1.7 1.7 0.00 0.00 0.00 70 1013.1
20260509134734 69 250 0.0 0.9 0.00 0.00 0.00 73 1013.1
20260509134232 69 269 0.0 2.6 0.00 0.00 0.00 74 1013.2
20260509133729 69 88 0.0 1.7 0.00 0.00 0.00 74 1013.1
20260509133225 68 179 0.0 1.7 0.00 0.00 0.00 75 1013.3
20260509132724 67 126 1.7 2.6 0.00 0.00 0.00 74 1013.0
20260509132222 66 130 1.7 1.7 0.00 0.00 0.00 76 1013.0
20260509131718 66 140 0.9 1.7 0.00 0.00 0.00 78 1013.0
20260509131215 64 211 0.9 0.9 0.00 0.00 0.00 84 1012.7
20260509130711 64 8 0.0 1.7 0.00 0.00 0.00 86 1013.0
20260509130207 61 231 0.0 1.7 0.00 0.00 0.00 93 1012.9
20260509125704 61 260 0.9 1.7 0.00 0.00 0.00 93 1013.1
20260509125200 60 218 0.0 1.7 0.00 0.00 0.00 96 1013.0
20260509124657 58 103 0.0 2.6 0.00 0.00 0.00 97 1013.0
20260509124154 57 174 0.9 1.7 0.00 0.00 0.00 97 1013.1
20260509123652 55 126 0.9 1.7 0.00 0.00 0.00 97 1013.1
20260509123149 54 257 0.0 1.7 0.00 0.00 0.00 97 1013.0
20260509122644 54 359 0.0 1.7 0.00 0.00 0.00 97 1013.1
20260509122141 53 135 1.7 1.7 0.00 0.00 0.00 97 1012.8
20260509121638 53 123 0.9 1.7 0.00 0.00 0.00 97 1012.8
20260509121136 53 104 0.0 1.7 0.00 0.00 0.00 97 1012.8
20260509120634 52 67 0.9 1.7 0.00 0.00 0.00 97 1012.5
20260509120132 52 121 0.0 2.6 0.00 0.00 0.00 97 1012.5
20260509115629 52 121 0.0 2.6 0.00 0.00 0.00 97 1012.5
20260509115126 51 84 0.9 1.7 0.00 0.00 0.00 96 1012.5
20260509114624 51 256 0.9 1.7 0.00 0.00 0.00 96 1012.6
20260509114123 51 78 0.0 1.7 0.00 0.00 0.00 96 1012.6
20260509113621 50 194 0.9 2.6 0.00 0.00 0.00 96 1012.7
20260509113118 50 233 0.9 1.7 0.02 0.00 0.00 96 1012.5
20260509112614 50 233 0.9 1.7 0.02 0.00 0.00 96 1012.5
20260509112112 50 79 0.9 2.6 0.00 0.00 0.00 96 1012.5
20260509111609 50 167 1.7 1.7 0.00 0.00 0.00 96 1012.6
20260509111105 50 118 0.0 1.7 0.00 0.00 0.00 96 1012.4
20260509110602 50 275 0.0 1.7 0.00 0.00 0.00 96 1012.3
20260509110059 50 83 0.0 1.7 0.00 0.00 0.00 96 1012.4
20260509105558 50 185 0.9 2.6 0.00 0.00 0.00 96 1012.2
20260509105055 50 112 0.9 1.7 0.00 0.00 0.00 96 1012.1
20260509104551 50 71 0.0 2.6 0.00 0.00 0.00 96 1012.1
20260509104048 50 254 0.0 1.7 0.00 0.00 0.00 95 1012.1
20260509103547 50 187 0.9 1.7 0.00 0.00 0.00 95 1011.9
20260509103045 50 301 0.0 1.7 0.00 0.00 0.00 95 1012.0
20260509102542 51 85 0.0 1.7 0.00 0.00 0.00 96 1012.2
20260509102038 51 85 0.0 1.7 0.00 0.00 0.00 96 1012.2
20260509101534 50 60 0.0 1.7 0.00 0.00 0.00 95 1011.8
20260509101032 50 45 0.9 1.7 0.00 0.00 0.00 95 1012.0
20260509100529 50 158 0.9 1.7 0.00 0.00 0.00 95 1011.9
20260509100026 50 192 0.9 1.7 0.00 0.00 0.00 95 1011.8
20260509095523 51 92 0.0 1.7 0.00 0.00 0.00 95 1011.9
20260509095020 51 92 0.0 1.7 0.00 0.00 0.00 95 1011.9
20260509094516 51 107 1.7 1.7 0.00 0.00 0.00 95 1012.1
20260509094014 51 213 0.0 1.7 0.00 0.00 0.00 95 1012.0
20260509093512 51 49 0.9 1.7 0.00 0.00 0.00 95 1011.9
20260509093009 51 50 0.0 1.7 0.00 0.00 0.00 95 1012.2
20260509092507 52 76 0.0 1.7 0.00 0.00 0.00 95 1012.1
20260509092005 52 118 0.0 1.7 0.00 0.00 0.00 95 1012.1
20260509091502 52 118 0.0 1.7 0.00 0.00 0.00 95 1012.1
20260509090958 52 20 0.9 1.7 0.00 0.00 0.00 95 1012.2
20260509090456 52 74 0.0 1.7 0.00 0.00 0.00 95 1012.2
20260509085953 52 299 0.9 1.7 0.00 0.00 0.00 95 1012.2
20260509085450 52 143 0.0 1.7 0.00 0.00 0.00 95 1012.3
20260509084946 52 236 0.0 1.7 0.00 0.00 0.00 95 1012.4
20260509084443 52 162 0.0 1.7 0.00 0.00 0.00 95 1012.2
20260509083941 52 69 0.0 1.7 0.00 0.00 0.00 95 1012.5
20260509083438 52 348 0.0 1.7 0.00 0.00 0.00 95 1012.4